EW3359 Weather Reports


Display with metric or nautical units.
time (UTC)temp
F
wind
direction
speed
MPH
gust
MPH
rain 1hr
in
rain 24hr
in
rain mn
in
humidity
%
barometer
mb
20260906011506 67 335 0.0 0.0 0.00 0.00 0.00 66 1020.5
20260906010005 67 335 0.0 0.0 0.00 0.00 0.00 65 1020.4
20260906004505 67 336 0.0 0.0 0.00 0.00 0.00 66 1020.3
20260906003004 67 336 0.0 0.0 0.00 0.00 0.00 66 1020.4
20260906001504 68 336 0.0 0.0 0.00 0.00 0.00 65 1020.5
20260906000003 68 344 0.0 0.0 0.00 0.00 0.00 65 1020.4
20260905234501 67 9 0.0 0.0 0.00 0.00 0.00 66 1020.3
20260905233101 67 13 0.0 0.0 0.00 0.00 0.00 66 1020.2
20260905231558 69 13 0.0 0.0 0.00 0.00 0.00 62 1020.2
20260905230057 69 12 0.0 0.0 0.00 0.00 0.00 60 1020.2
20260905224605 69 13 0.0 0.0 0.00 0.00 0.00 63 1020.1
20260905223053 69 13 0.0 0.0 0.00 0.00 0.00 63 1020.0
20260905221551 70 13 0.0 0.0 0.00 0.00 0.00 61 1020.0
20260905220048 70 5 0.0 0.0 0.00 0.00 0.00 60 1019.9
20260905214547 71 360 0.0 0.0 0.00 0.00 0.00 61 1019.9
20260905213046 70 360 0.0 0.0 0.00 0.00 0.00 60 1019.7
20260905211545 71 360 0.0 0.0 0.00 0.00 0.00 60 1019.6
20260905210045 73 301 0.0 0.0 0.00 0.00 0.00 57 1019.7
20260905204545 73 336 0.0 0.0 0.00 0.00 0.00 58 1019.7
20260905203043 73 309 0.0 0.0 0.00 0.00 0.00 56 1019.3
20260905201540 74 312 0.0 0.0 0.00 0.00 0.00 56 1019.1
20260905200049 74 330 0.0 0.0 0.00 0.00 0.00 54 1018.8
20260905194536 75 348 0.0 6.0 0.00 0.00 0.00 54 1018.6
20260905193035 75 319 0.0 2.0 0.00 0.00 0.00 54 1018.5
20260905191537 75 339 0.0 3.0 0.00 0.00 0.00 52 1018.3
20260905190045 76 5 0.0 3.0 0.00 0.00 0.00 52 1018.1
20260905184539 76 227 0.0 3.0 0.00 0.00 0.00 51 1018.0
20260905183031 77 231 0.0 3.0 0.00 0.00 0.00 50 1017.6
20260905181531 77 225 0.0 3.0 0.00 0.00 0.00 49 1017.5
20260905180028 78 205 0.0 2.0 0.00 0.00 0.00 48 1017.3
20260905174529 78 234 0.0 4.0 0.00 0.00 0.00 48 1017.1
20260905173030 79 207 0.0 3.0 0.00 0.00 0.00 47 1017.1
20260905171531 80 194 0.0 4.0 0.00 0.00 0.00 45 1016.7
20260905170027 82 183 2.0 5.0 0.00 0.00 0.00 42 1016.5
20260905164533 83 198 0.0 1.0 0.00 0.00 0.00 39 1016.5
20260905163026 84 167 0.0 9.0 0.00 0.00 0.00 38 1016.4
20260905161525 84 177 0.0 9.0 0.00 0.00 0.00 39 1016.4
20260905160025 84 268 0.0 9.0 0.00 0.00 0.00 38 1016.4
20260905154525 85 224 0.0 9.0 0.00 0.00 0.00 37 1016.4
20260905153036 84 275 2.0 9.0 0.00 0.00 0.00 38 1016.3
20260905151524 85 252 0.0 10.0 0.00 0.00 0.00 37 1016.3
20260905150023 84 256 1.0 10.0 0.00 0.00 0.00 37 1016.2
20260905144523 85 299 2.0 9.0 0.00 0.00 0.00 37 1016.2
20260905143024 85 260 0.0 11.0 0.00 0.00 0.00 36 1016.0
20260905141524 86 265 1.0 5.0 0.00 0.00 0.00 35 1016.1
20260905140021 86 277 0.0 11.0 0.00 0.00 0.00 36 1016.2
20260905134524 86 161 2.0 10.0 0.00 0.00 0.00 35 1016.3
20260905133026 85 261 1.0 9.0 0.00 0.00 0.00 38 1016.2
20260905131529 84 195 0.0 9.0 0.00 0.00 0.00 38 1016.4
20260905130031 85 144 1.0 7.0 0.00 0.00 0.00 37 1016.4
20260905124517 84 183 0.0 9.0 0.00 0.00 0.00 39 1016.4
20260905123016 84 192 1.0 11.0 0.00 0.00 0.00 39 1016.4
20260905121514 84 196 2.0 10.0 0.00 0.00 0.00 40 1016.5
20260905120013 83 223 3.0 9.0 0.00 0.00 0.00 43 1016.8
20260905114510 83 195 1.0 7.0 0.00 0.00 0.00 44 1016.9
20260905113013 82 194 3.0 9.0 0.00 0.00 0.00 43 1017.0
20260905111507 80 192 3.0 9.0 0.00 0.00 0.00 46 1017.1
20260905110005 80 209 2.0 7.0 0.00 0.00 0.00 46 1017.4
20260905104502 79 159 2.0 7.0 0.00 0.00 0.00 48 1017.5
20260905103100 78 173 1.0 5.0 0.00 0.00 0.00 50 1017.6
20260905101605 78 159 1.0 9.0 0.00 0.00 0.00 51 1017.5
20260905100100 78 150 0.0 5.0 0.00 0.00 0.00 50 1017.5
20260905094559 78 184 0.0 6.0 0.00 0.00 0.00 48 1017.4
20260905093057 77 205 0.0 6.0 0.00 0.00 0.00 49 1017.5
20260905091557 77 227 0.0 6.0 0.00 0.00 0.00 48 1017.4
20260905090055 77 209 0.0 4.0 0.00 0.00 0.00 50 1017.5
20260905084603 77 190 1.0 6.0 0.00 0.00 0.00 50 1017.5
20260905083054 77 193 0.0 4.0 0.00 0.00 0.00 50 1017.5
20260905081552 76 223 0.0 0.0 0.00 0.00 0.00 52 1017.6
20260905080050 75 187 0.0 0.0 0.00 0.00 0.00 53 1017.8
20260905074554 75 248 0.0 0.0 0.00 0.00 0.00 51 1017.8
20260905073057 75 227 0.0 0.0 0.00 0.00 0.00 53 1017.7
20260905071545 72 138 0.0 0.0 0.00 0.00 0.00 59 1017.5
20260905070038 70 138 0.0 0.0 0.00 0.00 0.00 64 1017.7
20260905064537 69 138 0.0 0.0 0.00 0.00 0.00 64 1017.5
20260905063034 68 138 0.0 0.0 0.00 0.00 0.00 68 1017.5
20260905061532 66 138 0.0 0.0 0.00 0.00 0.00 69 1017.4
20260905060036 66 138 0.0 0.0 0.00 0.00 0.00 70 1017.5
20260905054534 67 138 0.0 0.0 0.00 0.00 0.00 64 1017.4
20260905053008 66 42 0.0 0.0 0.00 0.00 0.00 66 1017.2
20260905051507 65 42 0.0 0.0 0.00 0.00 0.00 69 1017.1
20260905050004 64 42 0.0 0.0 0.00 0.00 0.00 69 1016.8
20260905044505 66 32 0.0 0.0 0.00 0.00 0.00 66 1016.7
20260905043103 65 57 0.0 0.0 0.00 0.00 0.00 66 1016.5
20260905041559 65 59 0.0 0.0 0.00 0.00 0.00 67 1016.3
20260905040100 64 60 0.0 0.0 0.00 0.00 0.00 69 1016.3
20260905034555 65 60 0.0 0.0 0.00 0.00 0.00 67 1016.1
20260905033100 65 124 0.0 0.0 0.00 0.00 0.00 66 1016.0
20260905031552 66 124 0.0 0.0 0.00 0.00 0.00 65 1015.8
20260905030049 66 124 0.0 0.0 0.00 0.00 0.00 64 1015.7
20260905024552 66 126 0.0 3.0 0.00 0.00 0.00 63 1015.7
20260905023050 66 129 0.0 4.0 0.00 0.00 0.00 64 1015.6
20260905021546 67 355 0.0 0.0 0.00 0.00 0.00 63 1015.6
20260905020044 67 355 0.0 0.0 0.00 0.00 0.00 63 1015.6
20260905014543 67 355 0.0 0.0 0.00 0.00 0.00 63 1015.3
20260905013041 68 355 0.0 0.0 0.00 0.00 0.00 61 1015.4